GAOFEN-4

Last updated on Fri Oct 04 2024 00:02:25 GMT+0000 (Coordinated Universal Time)

1 41194U 15083A 24277.55865434 -.00000330 00000+0 00000+0 0 9993 2 41194 0.0542 300.2124 0001652 316.3157 63.0471 1.00269761 32293
UTC large
Height (km)
Speed (km/s)
/
Latitude / Longitude
Inclination (degrees)
Orbital Period (minutes)
Azimuth
Elevation
Range (km)
Doppler Factor

Next 0 passes for location: London (51.5072 / 0.1276)

Sorry there are no passes over London.